Weather History for North Adams, MA

Change the Weather History Date:

Wednesday, October 31, 2012

  Actual Average Record
Temperature  
Mean Temperature 50 °F -  
Max Temperature 55 °F 51 °F 73 °F (2006)
Min Temperature 44 °F 33 °F 19 °F (2001)
Degree Days  
Heating Degree Days 16    
Moisture  
Dew Point 38 °F    
Average Humidity 69    
Maximum Humidity 90    
Minimum Humidity 52    
Precipitation  
Precipitation 0.17 in - - ()
Sea Level Pressure  
Sea Level Pressure 29.49 in    
Wind  
Wind Speed 7 mph (SSW)    
Max Wind Speed 12 mph    
Max Gust Speed 21 mph    
Visibility 9 miles    
Events Rain    
Averages and records for this station are not official NWS values.
T = Trace of Precipitation, MM = Missing Value Source: NWS Daily Summary

Daily Weather History Graph

Daily Weather History Graph

Search for Another Location

Airport:

Trip Planner

Search our weather history database for the weather conditions in past years. The results will help you decide how hot, cold, wet, or windy it might be!

Date:

Astronomy

Oct. 31, 2012 Rise Set
Actual Time 7:25 AM EDT 5:45 PM EDT
Civil Twilight 6:56 AM EDT 6:15 PM EDT
Nautical Twilight 6:23 AM EDT 6:48 PM EDT
Astronomical Twilight 5:50 AM EDT 7:21 PM EDT
Moon 6:52 PM EDT (10/31) 9:06 AM EDT (10/31)
Length of Visible Light 11h 18m
Length of Day
10h 20m
Full, 97% of the Moon is Illuminated
Oct 31
Full
Nov 6
Last Quarter
Nov 13
New
Nov 20
First Quarter
Nov 28
Full

Hourly Weather History & Observations

Time (EDT) Temp. Windchill Dew Point Humidity Pressure Visibility Wind Dir Wind Speed Gust Speed Precip Events Conditions
12:52 AM 55.0 °F - 50.0 °F 83% 29.47 in 9.0 mi East 8.1 mph 20.7 mph 0.02 in Rain Light Rain
1:16 AM 53.6 °F - 50.0 °F 88% 29.46 in 4.0 mi ESE 9.2 mph - 0.02 in Rain Light Rain
2:07 AM 53.6 °F - 50.0 °F 88% 29.45 in 10.0 mi East 6.9 mph - 0.01 in   Mostly Cloudy
2:19 AM 53.6 °F - 50.0 °F 88% 29.44 in 10.0 mi East 5.8 mph - 0.01 in   Overcast
2:52 AM 55.0 °F - 50.0 °F 83% 29.43 in 10.0 mi East 10.4 mph 17.3 mph 0.01 in Rain Light Rain
3:52 AM 55.0 °F - 48.9 °F 80% 29.42 in 8.0 mi East 10.4 mph 17.3 mph 0.01 in Rain Light Rain
4:52 AM 54.0 °F - 51.1 °F 90% 29.42 in 8.0 mi East 8.1 mph - 0.04 in Rain Light Rain
5:24 AM 53.6 °F - 48.2 °F 82% 29.42 in 3.0 mi SE 8.1 mph 19.6 mph 0.06 in Rain Light Rain
5:52 AM 52.0 °F - 46.9 °F 83% 29.43 in 7.0 mi Variable 3.5 mph - 0.07 in Rain Light Rain
6:28 AM 48.2 °F - 44.6 °F 87% 29.44 in 10.0 mi West 5.8 mph - 0.01 in   Overcast
6:52 AM 46.9 °F - 44.1 °F 90% 29.46 in 10.0 mi NW 8.1 mph - 0.01 in   Overcast
7:52 AM 46.9 °F - 42.1 °F 83% 29.49 in 10.0 mi WSW 8.1 mph - 0.01 in Rain Light Rain
8:37 AM 46.4 °F 44.3 °F 39.2 °F 76% 29.50 in 10.0 mi North 4.6 mph - 0.00 in   Overcast
8:52 AM 46.9 °F - 39.0 °F 74% 29.50 in 10.0 mi North 4.6 mph - 0.00 in   Overcast
9:52 AM 48.9 °F - 35.1 °F 59% 29.50 in 10.0 mi South 8.1 mph - N/A   Overcast
10:52 AM 48.9 °F - 36.0 °F 61% 29.49 in 10.0 mi Calm Calm - N/A   Overcast
11:52 AM 48.9 °F - 34.0 °F 56% 29.49 in 10.0 mi SW 11.5 mph 19.6 mph N/A   Overcast
12:52 PM 48.9 °F - 34.0 °F 56% 29.49 in 10.0 mi SW 9.2 mph - N/A   Overcast
1:52 PM 48.9 °F - 33.1 °F 54% 29.49 in 10.0 mi SW 11.5 mph 18.4 mph N/A   Overcast
2:52 PM 48.9 °F - 32.0 °F 52% 29.50 in 10.0 mi WSW 6.9 mph - N/A   Overcast
3:52 PM 48.9 °F - 33.1 °F 54% 29.50 in 10.0 mi WSW 9.2 mph - N/A   Mostly Cloudy
4:52 PM 48.0 °F - 33.1 °F 56% 29.50 in 10.0 mi SW 5.8 mph - N/A   Overcast
5:52 PM 46.9 °F - 33.1 °F 59% 29.51 in 10.0 mi Variable 5.8 mph - N/A   Overcast
6:52 PM 46.0 °F 43.9 °F 34.0 °F 63% 29.53 in 10.0 mi West 4.6 mph - N/A   Overcast
7:52 PM 46.0 °F 42.5 °F 34.0 °F 63% 29.54 in 10.0 mi WSW 6.9 mph - N/A   Overcast
8:06 PM 46.4 °F 42.9 °F 33.8 °F 62% 29.53 in 10.0 mi Variable 6.9 mph - N/A   Overcast
8:26 PM 46.4 °F 44.3 °F 33.8 °F 62% 29.52 in 10.0 mi SW 4.6 mph - N/A   Overcast
8:42 PM 46.4 °F 42.4 °F 33.8 °F 62% 29.53 in 10.0 mi SW 8.1 mph - N/A   Overcast
8:52 PM 46.0 °F 43.9 °F 33.1 °F 61% 29.54 in 10.0 mi SSW 4.6 mph - N/A   Overcast
9:28 PM 44.6 °F 38.8 °F 32.0 °F 61% 29.53 in 10.0 mi SSW 11.5 mph - N/A   Overcast
9:52 PM 45.0 °F - 33.1 °F 63% 29.55 in 10.0 mi Calm Calm - N/A   Overcast
10:00 PM 44.6 °F - 32.0 °F 61% 29.53 in 10.0 mi Calm Calm - N/A   Overcast
10:09 PM 44.6 °F 40.7 °F 32.0 °F 61% 29.54 in 10.0 mi SW 6.9 mph - N/A   Overcast
10:52 PM 45.0 °F 42.6 °F 32.0 °F 60% 29.55 in 10.0 mi SSW 4.6 mph - N/A   Overcast
11:03 PM 44.6 °F - 32.0 °F 61% 29.53 in 10.0 mi Calm Calm - N/A   Overcast
11:52 PM 44.1 °F - 32.0 °F 63% 29.54 in 10.0 mi Calm Calm - N/A   Overcast